Weather observations for the past three days for
Samuels Field Airport
Imperial (Metric)
Date Time (edt) Wind (mph) Vis. (mi.) Weather Sky Cond. Temperature (ºF) Relative Humidity Wind Chill (°F) Heat Index (°F) Pressure Precipitation (in)
Air Dwpt 6 hour altimeter (in) sea level (mb) 1 hr 3 hr 6 hr
Max. Min.
25 03:35 SE 5 10.00 Fair CLR 64.8 64.8 100% 29.96 0.0
25 03:15 Calm 10.00 Fair CLR 64.9 64.9 100% 29.97 0.0
25 02:55 Calm 10.00 A Few Clouds FEW130 65.3 65.3 100% 29.98 0.0
25 02:35 Calm 10.00 Partly Cloudy SCT120 65.3 65.3 100% 29.98 0.0
25 02:15 Calm 10.00 Fair CLR 66.4 66.4 100% 29.98 0.0
25 01:55 Calm 10.00 Fair CLR 67.1 67.1 100% 29.98 0.0
25 01:35 Calm 10.00 Fair CLR 67.3 67.3 100% 29.98 0.0
25 01:15 Calm 10.00 Fair CLR 67.3 67.3 100% 29.98 0.0
25 00:55 Calm 10.00 Fair CLR 66.6 66.6 100% 29.97 0.0
25 00:35 Calm 9.00 Fair CLR 68.4 68 99% 29.97 0.0
25 00:15 Calm 10.00 Fair CLR 68.4 67.8 98% 29.97 0.0
24 23:55 Calm 10.00 Fair CLR 69.1 67.1 93% 29.97 0.0
24 23:35 Calm 10.00 Fair CLR 71.1 65.5 83% 29.97 0.0
24 23:15 Calm 10.00 Fair CLR 71.4 64.2 78% 29.97 0.0
24 22:55 Calm 10.00 Fair CLR 72.3 67.1 84% 29.97 0.0
24 22:35 Calm 10.00 Fair CLR 72.9 67.6 84% 29.96 0.0
24 22:15 Calm 10.00 Fair CLR 73.4 66.4 79% 29.97 0.0
24 21:55 Calm 10.00 Fair CLR 77.5 62.2 59% 79 29.96 0.0
24 21:35 SE 3 10.00 Fair CLR 79 61.2 55% 80 29.96 0.0
24 21:15 Calm 10.00 Fair CLR 77.9 63.7 62% 80 29.95 0.0
24 20:55 Calm 10.00 Fair CLR 82 59.9 47% 82 29.95 0.0
24 20:35 Calm 10.00 Fair CLR 83.8 59 43% 84 29.94 0.0
24 20:15 N 3 10.00 Fair CLR 84.6 63.3 49% 86 29.95 0.0
24 19:55 NW 3 10.00 Fair CLR 85.1 61.2 45% 85 29.94 0.0
24 19:35 Calm 10.00 Fair CLR 86.5 60.4 42% 86 29.95 0.0
24 19:15 Calm 10.00 Fair CLR 87.3 57.9 37% 86 29.95 0.0
24 18:55 N 6 10.00 A Few Clouds FEW070 87.6 57 35% 86 29.95 0.0
24 18:35 Vrbl 3 10.00 A Few Clouds FEW070 87.1 58.5 38% 86 29.95 0.0
24 18:15 N 3 10.00 A Few Clouds FEW070 87.8 57.4 36% 87 29.96 0.0
24 17:55 N 3 10.00 Fair CLR 87.8 57.7 36% 87 29.96 0.0
24 17:35 Calm 10.00 Fair CLR 87.6 57.7 36% 87 29.96 0.0
24 17:15 Vrbl 3 10.00 Fair CLR 88.2 58.5 37% 87 29.97 0.0
24 16:55 Vrbl 6 10.00 Fair CLR 87.1 58.1 38% 86 29.97 0.0
24 16:35 Calm 10.00 Fair CLR 86.5 57.4 37% 85 29.97 0.0
24 16:15 Vrbl 6 10.00 Fair CLR 86.4 57.9 38% 85 29.97 0.0
24 15:55 N 9 10.00 Fair CLR 86.2 57.6 38% 85 29.98 0.0
24 15:35 E 5 10.00 Fair CLR 85.6 56.5 37% 84 29.98 0.0
24 15:15 Vrbl 5 10.00 Fair CLR 85.1 57 38% 84 29.98 0.0
24 14:55 NE 9 10.00 Fair CLR 85.8 55.9 36% 85 29.98 0.0
24 14:35 NE 7 10.00 Fair CLR 85.8 55.2 35% 84 29.99 0.0
24 14:15 Calm 10.00 Fair CLR 83.8 56.8 40% 83 30 0.0
24 13:55 NE 5 10.00 A Few Clouds FEW370 84 56.3 39% 83 30 0.0
24 13:35 NE 9 10.00 A Few Clouds FEW370 83.1 56.8 41% 83 30 0.0
24 13:15 Vrbl 5 10.00 Fair CLR 82.6 58.8 45% 83 30 0.0
24 12:55 NE 7 10.00 Fair CLR 82.6 58.5 44% 82 30 0.0
24 12:35 E 3 10.00 Fair CLR 81.3 59.4 47% 82 30.01 0.0
24 12:15 N 9 10.00 Fair CLR 81.3 60.8 50% 82 30.01 0.0
24 11:55 N 7 10.00 Fair CLR 81.1 59.9 49% 82 30 0.0
24 11:35 Vrbl 6 10.00 Fair CLR 79.3 61 54% 81 30 0.0
24 11:15 Vrbl 6 10.00 Fair CLR 77.9 61.5 57% 79 30 0.0
24 10:55 N 7 10.00 Fair CLR 77.9 62.8 60% 80 30 0.0
24 10:35 N 9 10.00 Fair CLR 77.5 61.9 59% 79 30 0.0
24 10:15 NE 8 10.00 Fair CLR 76.3 63.3 64% 78 30 0.0
24 09:55 NE 12 10.00 Fair CLR 75.7 62.6 64% 78 30 0.0
24 09:35 N 12 10.00 Fair CLR 75.4 63.1 66% 77 29.99 0.0
24 09:15 N 12 10.00 Fair CLR 74.3 63 68% 30 0.0
24 08:55 N 12 10.00 Fair CLR 73.6 63.9 72% 29.99 0.0
24 08:35 NE 8 10.00 Fair CLR 72.9 65.3 77% 29.98 0.0
24 08:15 NE 9 10.00 Fair CLR 71.8 65.8 82% 29.97 0.0
24 07:55 N 7 10.00 Fair CLR 70.9 67.1 88% 29.97 0.0
24 07:35 N 3 10.00 Fair CLR 70.2 67.8 92% 29.96 0.0
24 07:15 Calm 10.00 Fair CLR 68.7 68.4 99% 29.95 0.0
24 06:55 Calm 10.00 Fair CLR 68.4 67.6 98% 29.94 0.0
24 06:35 Calm 10.00 Fair CLR 67.1 67.1 100% 29.93 0.0
24 06:15 Calm 10.00 Fair CLR 67.1 67.1 100% 29.93 0.0
24 05:55 Calm 10.00 Fair CLR 68.9 67.5 95% 29.92 0.0
24 05:35 Calm 10.00 Fair CLR 69.8 68 94% 29.92 0.0
24 05:15 N 6 10.00 Fair CLR 70 68.4 95% 29.92 0.0
24 04:55 N 3 10.00 Fair CLR 70 68.9 96% 29.91 0.0
24 04:35 N 5 10.00 Fair CLR 71.1 68.9 93% 29.9 0.0
24 04:15 N 5 10.00 Fair CLR 72 69.3 91% 29.9 0.0
24 03:55 N 5 10.00 Fair CLR 72.3 70 92% 29.9 0.0
24 03:35 N 3 10.00 Fair CLR 72.1 70.9 96% 29.89 0.0
24 03:15 NW 3 10.00 Fair CLR 72 72 100% 29.89 0.0
24 02:35 Calm 9.00 Fair CLR 71.6 71.6 100% 29.88 0.0
24 02:15 Calm 9.00 Fair CLR 72.1 72.1 100% 29.88 0.0
24 01:35 Calm 9.00 Fair CLR 72.1 72.1 100% 29.88 0.0
24 01:15 Calm 9.00 Fair CLR 71.4 71.4 100% 29.88 0.0
24 00:55 Calm 5.00 Fog/Mist CLR 72 72 100% 29.88 0.0
24 00:35 Calm 10.00 Fair CLR 73.2 73.2 100% 29.87 0.0
24 00:15 Calm 10.00 Fair CLR 74.1 74.1 100% 29.87 0.0
23 23:55 Calm 10.00 Fair CLR 73.8 73.8 100% 29.86 0.0
23 23:35 Calm 10.00 Fair CLR 74.3 74.3 100% 29.86 0.0
23 22:55 Calm 10.00 Fair CLR 75.9 75.9 100% 75 29.84 0.0
23 22:35 Calm 10.00 Fair CLR 76.6 75.9 98% 77 29.84 0.0
23 22:15 Calm 10.00 Fair CLR 77 75.7 96% 78 29.84 0.0
23 21:55 W 5 10.00 Fair CLR 77.9 75.7 93% 80 29.82 0.0
23 21:35 W 5 9.00 Fair CLR 78.8 75.6 90% 82 29.82 0.0
23 21:15 W 5 10.00 Fair CLR 79.5 75.4 87% 84 29.81 0.0
23 19:55 W 7 9.00 Overcast OVC070 82.2 77.2 85% 91 29.8 0.0
23 19:35 W 8 8.00 Light Rain FEW050 BKN075 OVC090 82.4 77.2 84% 91 29.8 0.0
23 19:15 W 7 9.00 Mostly Cloudy FEW043 BKN090 83.3 77.2 82% 93 29.8 0.0
23 18:55 W 8 9.00 Partly Cloudy FEW033 SCT043 84.2 77.2 80% 94 29.8 0.0
23 18:35 W 7 10.00 Partly Cloudy SCT033 SCT043 83.7 76.8 80% 93 29.8 0.0
23 18:15 W 8 10.00 Partly Cloudy FEW022 SCT038 SCT065 85.3 77 76% 96 29.8 0.0
23 17:55 W 5 10.00 Mostly Cloudy FEW022 SCT027 BKN037 BKN065 85.5 77.7 78% 97 29.81 0.0
23 17:35 W 8 10.00 Overcast BKN026 BKN032 OVC050 83.8 76.8 79% 93 29.81 0.0
23 17:15 SW 8 10.00 Mostly Cloudy SCT028 BKN033 BKN041 BKN050 84.6 77.2 79% 95 29.81 0.0
23 16:55 W 7 10.00 Overcast BKN028 OVC037 82.2 76.3 82% 90 29.81 0.0
23 16:35 W 8 10.00 Overcast OVC027 82.2 76.1 82% 90 29.82 0.0
23 16:15 W 7 10.00 Overcast BKN028 OVC034 82 76.3 83% 90 29.82 0.0
23 15:55 W 8 6.00 Light Rain BKN032 OVC042 81.5 76.1 84% 88 29.82 0.0
23 15:35 W 10 10.00 Overcast BKN033 BKN041 OVC050 84 75.4 75% 92 29.82 0.0
23 15:15 SW 12 10.00 Overcast SCT032 BKN040 OVC050 85.6 75.2 71% 95 29.82 0.0
23 14:55 SW 13 G 18 10.00 Mostly Cloudy BKN035 BKN044 86.4 75.2 69% 96 29.82 0.0
23 14:35 SW 9 G 18 10.00 Partly Cloudy SCT035 87.4 75 67% 97 29.83 0.0
23 14:15 SW 12 G 22 10.00 Partly Cloudy SCT032 86.9 74.7 67% 96 29.83 0.0
23 13:55 SW 9 10.00 Partly Cloudy SCT026 85.3 74.8 71% 94 29.84 0.0
23 13:35 SW 10 G 20 10.00 Mostly Cloudy BKN025 BKN110 84.4 75 74% 93 29.85 0.0
23 13:15 SW 16 G 23 10.00 Mostly Cloudy SCT025 BKN110 83.7 74.8 75% 91 29.85 0.0
23 12:55 SW 12 G 23 10.00 Partly Cloudy SCT023 SCT360 83.5 75.4 77% 91 29.86 0.0
23 12:35 SW 9 G 18 10.00 Partly Cloudy FEW023 SCT350 SCT370 81.1 74.7 81% 87 29.86 0.0
23 12:15 SW 8 10.00 Mostly Cloudy SCT140 SCT240 BKN320 BKN350 80.8 74.8 82% 86 29.86 0.0
23 11:55 W 9 10.00 Overcast OVC130 79.3 74.7 86% 83 29.86 0.0
23 11:35 SW 9 10.00 Overcast OVC130 78.3 74.7 89% 81 29.87 0.0
23 11:15 SW 10 10.00 Mostly Cloudy BKN140 78.1 74.8 90% 81 29.87 0.0
23 10:55 SW 6 10.00 Overcast SCT090 BKN130 OVC210 76.6 75.4 96% 77 29.87 0.0
23 10:35 SW 6 4.00 Light Rain Fog/Mist OVC095 75.4 74.5 97% 74 29.87 0.0 0.02
23 10:15 SW 3 5.00 Light Rain Fog/Mist BKN095 OVC120 76.1 73.6 92% 76 29.87 0.0
23 09:55 SW 7 10.00 Overcast FEW045 OVC120 78.8 72 80% 82 29.88 0.0
23 09:35 SW 6 10.00 Overcast SCT045 BKN060 OVC120 79 72.1 80% 82 29.89 0.0
23 09:15 W 6 10.00 Overcast BKN065 BKN075 BKN090 OVC120 79 72 79% 82 29.89 0.0
23 08:55 Vrbl 7 10.00 Overcast SCT070 SCT090 OVC120 79 72 79% 82 29.89 0.0
23 08:35 SW 6 10.00 Overcast BKN090 OVC120 78.6 71.8 80% 81 29.89 0.0
23 08:15 SW 6 10.00 Overcast BKN090 OVC120 77.9 71.2 80% 80 29.89 0.0
23 07:55 SW 6 10.00 Overcast SCT095 OVC120 77 70.9 81% 79 29.88 0.0
23 07:35 SW 5 10.00 Mostly Cloudy BKN100 76.3 70.5 82% 77 29.88 0.0
23 07:15 SW 7 10.00 Mostly Cloudy BKN110 75.6 70.3 84% 76 29.87 0.0
23 06:55 SW 6 10.00 Mostly Cloudy BKN110 75.2 70.3 85% 75 29.87 0.0
23 06:35 SW 6 10.00 A Few Clouds FEW120 74.7 70.3 86% 29.87 0.0
23 06:15 SW 6 10.00 A Few Clouds FEW190 74.3 70.2 87% 29.87 0.0
23 05:55 S 5 10.00 A Few Clouds FEW190 74.3 70.2 87% 29.87 0.0
23 05:35 S 5 10.00 Fair CLR 74.5 70.5 88% 29.87 0.0
23 05:15 S 3 10.00 Fair CLR 75.2 70.5 85% 75 29.88 0.0
23 04:55 SW 3 10.00 Fair CLR 75 70.7 86% 75 29.89 0.0
23 04:35 SW 5 10.00 Fair CLR 75.2 70.7 86% 75 29.89 0.0
23 04:15 SW 5 10.00 Fair CLR 75.4 70.7 85% 75 29.89 0.0
23 03:55 SW 5 10.00 Fair CLR 75.6 71.1 86% 76 29.9 0.0
23 03:35 SW 3 10.00 Fair CLR 75.9 71.1 85% 76 29.9 0.0
23 03:15 SW 6 10.00 Fair CLR 75.9 71.2 85% 76 29.9 0.0
23 02:55 SW 5 10.00 Fair CLR 75.9 71.6 87% 76 29.9 0.0
23 02:35 Calm 10.00 Fair CLR 75.7 72.5 90% 76 29.9 0.0
23 02:15 Calm 10.00 Fair CLR 75.4 72.9 92% 75 29.91 0.0
23 01:55 SW 3 10.00 Fair CLR 75.7 72.9 91% 75 29.92 0.0
23 01:35 SW 3 10.00 Fair CLR 76.1 72.9 90% 76 29.92 0.0
23 01:15 SW 3 10.00 Fair CLR 76.3 73 90% 77 29.92 0.0
23 00:55 SW 3 10.00 A Few Clouds FEW230 76.8 73.4 89% 78 29.93 0.0
23 00:35 S 3 10.00 Partly Cloudy SCT300 76.6 74.3 93% 77 29.93 0.0
23 00:15 Calm 10.00 Fair CLR 77 74.8 93% 78 29.93 0.0
22 23:55 Calm 10.00 Fair CLR 77.5 74.7 91% 79 29.93 0.0
22 23:35 SW 3 10.00 Fair CLR 78.1 74.8 90% 81 29.93 0.0
22 23:15 SW 3 10.00 Fair CLR 79 74.1 85% 83 29.93 0.0
22 22:55 SW 3 10.00 Fair CLR 79.7 73.9 83% 84 29.92 0.0
22 22:35 Calm 10.00 Fair CLR 79.2 74.5 86% 83 29.92 0.0
22 22:15 S 3 10.00 Fair CLR 80.8 74.3 81% 86 29.92 0.0
22 21:55 S 5 10.00 Fair CLR 81.1 74.5 80% 87 29.92 0.0
22 21:35 S 3 9.00 Fair CLR 82.4 74.8 78% 89 29.93 0.0
22 21:15 Calm 8.00 Partly Cloudy SCT070 83.8 75 75% 92 29.93 0.0
22 20:55 Calm 9.00 Mostly Cloudy SCT070 BKN095 85.1 75 72% 94 29.94 0.0
22 20:35 Calm 9.00 Mostly Cloudy FEW070 BKN100 86.4 75.4 70% 96 29.93 0.0
22 20:15 Calm 9.00 Fair CLR 87.1 74.5 66% 96 29.94 0.0
22 19:55 W 5 10.00 Fair CLR 88.2 74.5 64% 97 29.94 0.0
22 19:35 W 6 10.00 Partly Cloudy SCT110 88.5 73.8 62% 97 29.94 0.0
22 19:15 W 6 10.00 Fair CLR 90.5 72.9 56% 99 29.94 0.0
22 18:55 W 7 10.00 A Few Clouds FEW055 91.6 73 55% 100 29.95 0.0
22 18:35 W 8 10.00 Mostly Cloudy BKN055 BKN075 BKN110 92.3 73.2 54% 101 29.95 0.0
22 18:15 SW 5 10.00 Mostly Cloudy FEW060 SCT075 BKN110 90.1 72.5 56% 98 29.95 0.0
22 17:55 SW 7 10.00 Partly Cloudy SCT110 92.1 71.2 51% 99 29.96 0.0
22 17:35 SW 6 10.00 Partly Cloudy FEW060 SCT100 93.4 71.2 49% 101 29.96 0.0
22 17:15 SW 6 10.00 Partly Cloudy FEW055 SCT100 93 70.2 47% 99 29.96 0.0
22 16:55 SW 9 10.00 A Few Clouds FEW055 93.7 70.2 46% 100 29.97 0.0
22 16:35 W 9 10.00 Fair CLR 94.5 70.3 46% 101 29.98 0.0
22 16:15 S 9 10.00 Fair CLR 93.6 69.8 46% 100 29.98 0.0
22 15:55 S 7 10.00 A Few Clouds FEW060 93.7 71.2 48% 101 29.99 0.0
22 15:35 SW 9 10.00 A Few Clouds FEW080 93 71.1 49% 100 30 0.0
22 15:15 W 6 10.00 Partly Cloudy FEW090 SCT110 94.1 71.2 48% 102 30 0.0
22 14:55 SW 6 10.00 Mostly Cloudy SCT050 SCT070 BKN085 91.9 71.4 51% 99 30.01 0.0
22 14:35 W 7 10.00 Mostly Cloudy BKN050 91 71.1 52% 98 30.02 0.0
22 14:15 NW 5 10.00 Mostly Cloudy SCT050 BKN065 91.4 71.2 52% 98 30.02 0.0
22 13:55 W 6 10.00 Overcast BKN049 BKN065 OVC100 89.2 72.1 57% 96 30.03 0.0
22 13:35 SW 3 10.00 Overcast FEW049 SCT080 OVC100 89.8 72.9 58% 98 30.04 0.0
22 13:15 W 5 10.00 Mostly Cloudy BKN100 90 72.3 56% 98 30.04 0.0
22 12:55 W 3 10.00 Mostly Cloudy FEW060 SCT080 BKN100 90.9 71.6 53% 98 30.05 0.0
22 12:35 W 6 10.00 Mostly Cloudy FEW046 SCT060 BKN080 91.2 73 55% 100 30.06 0.0
22 12:15 SW 3 10.00 Partly Cloudy SCT046 91 73 56% 100 30.06 0.0
22 11:55 Vrbl 6 10.00 Fair CLR 90 73 58% 98 30.07 0.0
22 11:35 Vrbl 5 10.00 Fair CLR 88.9 73.4 60% 97 30.08 0.0
22 11:15 SW 6 10.00 A Few Clouds FEW250 88.2 73.4 62% 96 30.08 0.0
22 10:55 S 6 10.00 Partly Cloudy SCT250 88.3 73.4 61% 97 30.09 0.0
22 10:35 W 3 10.00 A Few Clouds FEW260 86.5 73.9 66% 95 30.09 0.0
22 10:15 W 5 10.00 Mostly Cloudy FEW220 BKN250 85.5 74.3 69% 94 30.1 0.0
22 09:55 S 5 10.00 Mostly Cloudy BKN250 85.5 75 71% 94 30.09 0.0
22 09:35 Calm 10.00 A Few Clouds FEW250 82.6 75.4 79% 90 30.1 0.0
22 09:15 Calm 10.00 Partly Cloudy SCT250 81 76.1 85% 87 30.1 0.0
22 08:55 Calm 10.00 Partly Cloudy SCT250 78.4 74.8 89% 82 30.11 0.0
22 08:35 Calm 10.00 Partly Cloudy SCT250 77.2 75.4 94% 78 30.11 0.0
22 08:15 Calm 9.00 Partly Cloudy SCT250 75.2 75.2 100% 73 30.11 0.0
22 07:55 Calm 9.00 A Few Clouds FEW250 74.7 74.7 100% 30.11 0.0
22 07:35 Calm 8.00 Partly Cloudy FEW100 SCT250 73.6 73.6 100% 30.11 0.0
22 07:15 Calm 7.00 Mostly Cloudy BKN100 72.1 72.1 100% 30.11 0.0
22 06:55 Calm 5.00 Fog/Mist BKN100 71.4 71.4 100% 30.12 0.0
22 06:35 Calm 6.00 Fog/Mist OVC100 71.4 71.4 100% 30.12 0.0
22 06:15 Calm 6.00 Fog/Mist BKN100 71.2 71.2 100% 30.12 0.0
22 05:55 Calm 5.00 Fog/Mist FEW100 71.2 71.2 100% 30.12 0.0
22 05:35 Calm 8.00 Fair CLR 70.7 70.7 100% 30.12 0.0
22 05:15 Calm 4.00 Fog/Mist CLR 70.9 70.9 100% 30.12 0.0
22 04:55 Calm 5.00 Fog/Mist CLR 71.1 71.1 100% 30.12 0.0
22 04:35 Calm 5.00 Fog/Mist CLR 71.1 71.1 100% 30.11 0.0
22 04:15 Calm 6.00 Fog/Mist CLR 72 72 100% 30.11 0.0
22 03:55 Calm 5.00 Fog/Mist CLR 72.7 72.7 100% 30.11 0.0
Date Time (edt) Wind (mph) Vis. (mi.) Weather Sky Cond. Air Dwpt Max. Min. Relative Humidity Wind Chill (°F) Heat Index (°F) altimeter (in) sea level (mb) 1 hr 3 hr 6 hr
6 hour
Temperature (ºF) Pressure Precipitation (in)